Flag for Canada Weather past 2 weeks in Nanaimo, British Columbia, Canada

Now
66 °F

Mild.


Feels Like: 66 °F
Forecast: 61 / 72 °F
Wind: 16 mph from Southeast

Location: Entrance Island

Current Time: Aug 20, 2014 at 4:07:28 PM

Latest Report: Aug 20, 2014 at 3:00 PM


Visibility: N/A

Pressure: 29.93 "Hg

Humidity: 72%

Dew point: 57 °F

Location of NanaimoLocation

Historic Weather in Nanaimo — Graph

°F

Nanaimo temperature yesterday

Maximum temperature yesterday: 72 °F (at 7:00 PM)
Minimum temperature yesterday: 65 °F (at 6:00 AM)
Average temperature yesterday: 68 °F

Past Weeks' High & Low Weather Summary

 TemperatureHumidityPressure
High76 °F (Aug 11, 12:00 AM)96% (Aug 15, 8:00 AM)30.16 "Hg (Aug 15, 8:00 AM)
Low60 °F (Aug 15, 8:00 AM)47% (Aug 11, 11:00 PM)29.75 "Hg (Aug 19, 8:00 PM)
Average67 °F75%29.99 "Hg
* Reported Aug 5 3:00 PM — Aug 20 3:00 PM, Nanaimo, Weather by CustomWeather, © 2014

Note: Actual official high and low records may vary slightly from our data, if they occured in-between our weather recording intervals... More about our weather records

Advertising

Nanaimo weather history for previous 24 hours

 ConditionsComfort  
Time TempWeatherWind HumidityBarometerVisibility
3:00 PM
Aug 20
66 °FMild.16 mph72%29.93 "HgN/A
2:00 PM66 °FMild.12 mph67%29.94 "HgN/A
1:00 PM66 °FMild.5 mph66%29.95 "HgN/A
12:00 PM64 °FMild.5 mph69%29.94 "HgN/A
11:00 AM63 °FMild.7 mph73%29.94 "HgN/A
10:00 AM63 °FMild.7 mph72%29.92 "HgN/A
9:00 AM64 °FMild.9 mph61%29.91 "HgN/A
8:00 AM64 °FMild.12 mph64%29.89 "HgN/A
7:00 AM64 °FMild.14 mph72%29.87 "HgN/A
6:00 AM64 °FMild.14 mph67%29.86 "HgN/A
5:00 AM65 °FMild.18 mph64%29.82 "HgN/A
4:00 AM65 °FMild.20 mph59%29.82 "HgN/A
3:00 AM64 °FMild.20 mph74%29.81 "HgN/A
2:00 AM66 °FMild.25 mph66%29.80 "HgN/A
1:00 AM67 °FMild.25 mph70%29.78 "HgN/A
12:00 AM68 °FMild.26 mph65%29.77 "HgN/A
11:00 PM
Aug 19
69 °FMild.22 mph65%29.76 "HgN/A
10:00 PM69 °FMild.7 mph68%29.77 "HgN/A
9:00 PM68 °FMild.3 mph73%29.77 "HgN/A
8:00 PM69 °FMild.1 mph70%29.75 "HgN/A
7:00 PM72 °FMild.No wind64%29.76 "HgN/A
6:00 PM69 °FMild.2 mph69%29.76 "HgN/A
5:00 PM69 °FMild.5 mph74%29.78 "HgN/A
4:00 PM71 °FMild.2 mph65%29.78 "HgN/A
Weather by CustomWeather, © 2014

See weather overviewHow to use our weather pages